Showing default

GLOBAL-2, 43812

Orbit data source: Space-Track

GLOBAL-2, 43812 is a payload satellite owned by BlackSky Global (US) in SSO that was launched on Mon, 03 Dec 2018 UTC via an FALCON 9 launch vehicle from the Air Force Western Test Range (AFWTR). Payload-class satellites include a variety of spacecraft equipped with specific instruments for various scientific and technological missions. These include communications satellites like Starlink; space stations such as the ISS; scientific satellites like the Hubble; Earth observation satellites from companies like Planet Labs, Umbra, and HawkEye 360; GPS; miniature CubeSats for education and research; and military/defense satellites.

Loading next visibility...
Identifier
43812, 2018-099BG
Orbit
SSO
Country
Flag of USUS
Related business
Manufacturer
LeoStella
Mission
Operational Commercial Imaging
Bus & Motor
BSKY, Unknown motor
Mass
55 kg wet, ~50 kg dry
Launch date (UTC)
2018-12-03 (8 years ago)
Launch vehicle
FALCON 9
Launch site
Air Force Western Test Range (AFWTR)
Object type
Payload
Rocket body
Debris
Shape & HBR
Box, 1.0 m
Radar Cross Section
0.625 m², Medium (>0.1 m² and < 1m²)

Expand to show TLE details & history
Last TLE update: 2 days ago

TLE from 2 days ago
0 GLOBAL-2
1 43812U 18099BG  26171.05947289  .00002764  00000-0  18013-3 0  9991
2 43812  97.3550 207.4535 0007076 134.9908 225.1895 15.08684178412343
Epoch: 2026-06-20T01:25Z
TLE epoch observation values (Epoch: 2026-06-20T01:25:38.457Z)
Latitude
-0.0001°
Longitude
-82.23626°
Altitude
546.749 km
Speed
7.587 km/s
True Right ascension
13h 49m 48s
True Declination
0° 00' 00"
Sunlit
Object was in full shadow at epoch
Visualization orbit readout
Latitude
Unknown
Longitude
Unknown
Altitude
Unknown
Speed
Unknown
Apparent Right ascension
Unknown
Apparent Declination
Unknown
Sunlit
N/A
Visualization observer readout
Local Sidereal Time
21:37:04
Azimuth
Unknown
Elevation
Unknown
Doppler factor
Unknown
Orbital elements
Apogee altitude
542.092 km
Perigee altitude
532.305 km
Semi-major axis
6,915.335 km
Eccentricity
0.00071
Inclination
97.355°
RAAN
207.4535°
Arg. of periapsis
134.9908°
True anomaly
225.13201°
Mean anomaly
225.1895°
Eccentric anomaly
225.16075°
Mean motion
3.77419 °/min
Orbital period
95.38 mins
BSTAR
0.00018013
Loading maneuver chart data...
Computing Atmospheric mass density...
Loading historical data...
Loading historical data...
Loading historical data...
Loading historical data...
Loading historical data...
Loading historical data...
Loading historical data...

Documentation

Showing up to 5 results
|